Regional Weather Roundup
Issued by NWS

Home | Current Version | Previous Version | Graphics & Text | Print | Product List | Glossary On
Versions: 1 2 3 4 5 6 7 8 9 10 11 12 13 14 15 16 17 18 19 20 21 22 23 24 25 26 27 28 29 30 31 32 33 34 35 36 37 38 39 40 41 42 43 44 45 46 47 48 49 50
000
ASUS43 KLOT 271521
RWRIL

ILLINOIS REGIONAL WEATHER ROUNDUP
NATIONAL WEATHER SERVICE CHICAGO/ROMEOVILLE IL
1000 AM CDT MON APR 27 2015

NOTE: "FAIR" INDICATES FEW OR NO CLOUDS BELOW 12,000 FEET WITH NO
SIGNIFICANT WEATHER AND/OR OBSTRUCTIONS TO VISIBILITY.

* THESE STATIONS ARE NOT UNDER NWS QUALITY CONTROL. THEY ALSO MAY NOT
  REPORT WEATHER SUCH AS PRECIPITATION OR FOG.

ILZ001-002-007-009-015-016-024-271600-
NORTHWEST ILLINOIS

CITY           SKY/WX    TMP DP  RH WIND       PRES   REMARKS
MOLINE         SUNNY     54  34  46 E8        30.17R
STERLING*      SUNNY     55  36  47 N10G16    30.17S
SAVANNA*       SUNNY     53  31  43 NE3       30.18S
$$

ILZ003-004-008-010-011-017-018-271600-
NORTH CENTRAL ILLINOIS

CITY           SKY/WX    TMP DP  RH WIND       PRES   REMARKS
ROCKFORD       SUNNY     53  34  48 N9        30.19S
FREEPORT*      SUNNY     50  32  51 N7        30.19S
ROCHELLE*      SUNNY     49  35  57 N9        30.16S
DE KALB*       SUNNY     48  35  60 NW7       30.15F
PERU*          SUNNY     52  34  50 N13G18    30.15S
$$

ILZ005-006-012>014-019>023-271600-
NORTHEAST ILLINOIS

CITY           SKY/WX    TMP DP  RH WIND       PRES   REMARKS
CHICAGO-OHARE  MOSUNNY   49  32  52 N13G18    30.13R
CHICAGO-MIDWAY MOSUNNY   52  34  50 N12       30.13R
AURORA         SUNNY     50  36  58 N12       30.14F
LANSING*       SUNNY     48  33  56 N14G20    30.12R
JOLIET*        SUNNY     52  36  54 N10       30.13S
WAUKEGAN       MOSUNNY   50  35  56 NE12      30.13R
DUPAGE AIRPORT SUNNY     51  35  54 N9        30.13S
KANKAKEE*      SUNNY     49  37  63 NW14      30.12S
WHEELING       PTSUNNY   50  33  52 N9        30.15R
MORRIS*        SUNNY     51  37  58 N6        30.11S
ROMEOVILLE*    SUNNY     51  33  50 N12       30.12S
NORTHERLY ISL    N/A     46  34  62 N16         N/A
$$

LMZ740>746-271600-
SOUTHERN LAKE MICHIGAN

STATION/POSITION SKY/WX   TEMP    WIND        PRES    VSBY  WAVE
                          AIR SEA DIR/SP/G                  HT/PER
                          (F)     (DEG/KT/KT) (MB)    (MI)  (FT/S)
HARRISON CRIB              43     340/ 19/ 22   N/A
BURNHAM HARBOR             46      10/ 11/ 18   N/A
CALUMET HARBOR             45     330/ 11/ 15   N/A
BURNS HARBOR               42     340/ 12/ 15 1020.0R
MICHIGAN CITY              41     320/ 21/ 23   N/A
MICHIGAN CITY 6N           40 45  340/ 16/ 19   N/A           4/ 5
$$

ILZ025>027-034>036-040-047-049-050-058-095>099-271600-
WEST-CENTRAL ILLINOIS

CITY           SKY/WX    TMP DP  RH WIND       PRES   REMARKS
QUINCY         PTSUNNY   55  39  54 N8        30.14R
GALESBURG*     SUNNY     53  38  56 NE12      30.15R
MACOMB*        SUNNY     53  37  54 NE12      30.16R
JACKSONVILLE*  MOSUNNY   56  35  45 NE9       30.13R
PITTSFIELD*    PTSUNNY   55  39  55 N6        30.15R
$$

ILZ028>032-037-038-041>044-048-051>054-059>061-271600-
CENTRAL ILLINOIS

CITY           SKY/WX    TMP DP  RH WIND       PRES   REMARKS
PONTIAC        SUNNY     53  38  56 N14G20    30.14R
BLOOMINGTON    SUNNY     52  36  54 NE17      30.13S
DECATUR        SUNNY     53  37  54 NE20      30.10S
PEORIA         SUNNY     54  33  45 NE13      30.14S
LACON*         SUNNY     51  34  51 N8        30.15R
LINCOLN*       SUNNY     53  38  55 N13       30.12R
SPRINGFIELD    SUNNY     55  37  50 NE14      30.13R
TAYLORVILLE    SUNNY     52  36  54 N18       30.11R
$$

ILZ033-039-045-046-055>057-062-063-271600-
EAST-CENTRAL ILLINOIS

CITY           SKY/WX    TMP DP  RH WIND       PRES   REMARKS
CHAMPAIGN      SUNNY     52  36  54 N18G26    30.09S
DANVILLE*      SUNNY     49  38  64 N16       30.06S
RANTOUL*       SUNNY     52  37  58 N12       30.10S
MATTOON        SUNNY     51  36  56 N21G28    30.07S
PARIS*         SUNNY     51  37  59 N14G23    30.07S
$$

ILZ079-100>102-271600-
SOUTHWEST ILLINOIS

CITY           SKY/WX    TMP DP  RH WIND       PRES   REMARKS
BELLEVILLE     PTSUNNY   54  36  51 NE5       30.13R
CAHOKIA*       CLOUDY    54  35  48 NW6       30.15R
SPARTA*        CLOUDY    51  36  55 CALM      30.14R
$$

ILZ064>066-069>071-074>076-080>082-084>086-088>090-092>094-271600-
SOUTH-CENTRAL ILLINOIS

CITY           SKY/WX    TMP DP  RH WIND       PRES   REMARKS
CARBONDALE     PTSUNNY   52  34  50 CALM      30.13R
CAIRO*         PTSUNNY   55  33  44 N8        30.10S
EFFINGHAM*     MOSUNNY   53  33  46 NW15G22   30.10R
MARION         PTSUNNY   54  34  47 N9        30.13R
MT. VERNON     PTSUNNY   55  36  47 CALM      30.12R
CENTRALIA*     PTSUNNY   59  32  36 N6        30.11R
SALEM*         PTSUNNY   55  35  47 NE7       30.10R
METROPOLIS*    MOSUNNY   55  34  45 N8        30.10R
$$

ILZ067-068-072-073-078-083-087-091-271600-
SOUTHEAST ILLINOIS

CITY           SKY/WX    TMP DP  RH WIND       PRES   REMARKS
LAWRENCEVILLE  MOSUNNY   55  37  50 N12       30.06R
FLORA*         MOSUNNY   53  37  53 N9        30.09R
FAIRFIELD*     PTSUNNY   53  35  50 N7        30.09R
HARRISBURG*    PTSUNNY   52  34  51 NE3       30.12R
ROBINSON*      MOSUNNY   52  35  53 N16G22    30.06R
CARMI*         PTSUNNY   54  31  41 N6        30.09R
$$

ABBREVIATIONS USED IN REMARKS
   TC - TEMPERATURE IN CELSIUS
  WCI - WIND CHILL INDEX
   HX - HEAT INDEX
  VSB - VISIBILITY
$$



USA.gov is the U.S. government's official web portal to all federal, state and local government web resources and services.